Time,TemperatureF,DewpointF,PressureIn,WindDirection,WindDirectionDegrees,WindSpeedMPH,WindSpeedGustMPH,Humidity,HourlyPrecipIn,Conditions,Clouds,dailyrainin,SoftwareType,DateUTC
2013-11-22 00:05:00,46.9,45.3,30.42,West,271,0.0,0.0,94,0.00,,,0.00,Wunderground v.1.15,2013-11-22 05:05:00,
2013-11-22 00:10:00,46.8,45.2,30.42,West,271,0.0,0.0,94,0.00,,,0.00,Wunderground v.1.15,2013-11-22 05:10:00,
2013-11-22 00:15:00,46.9,45.5,30.41,West,271,0.0,0.0,95,0.00,,,0.00,Wunderground v.1.15,2013-11-22 05:15:00,
2013-11-22 00:25:00,46.7,45.1,30.41,West,271,0.0,0.0,94,0.00,,,0.00,Wunderground v.1.15,2013-11-22 05:25:00,
2013-11-22 00:30:00,46.5,45.1,30.41,West,271,0.0,0.0,95,0.00,,,0.00,Wunderground v.1.15,2013-11-22 05:30:00,
2013-11-22 00:35:00,46.5,45.1,30.41,West,271,0.0,0.0,95,0.00,,,0.00,Wunderground v.1.15,2013-11-22 05:35:00,
2013-11-22 00:40:00,46.4,45.0,30.40,West,271,0.0,0.0,95,0.00,,,0.00,Wunderground v.1.15,2013-11-22 05:40:00,
2013-11-22 00:45:00,46.4,45.0,30.40,West,271,0.0,0.0,95,0.00,,,0.00,Wunderground v.1.15,2013-11-22 05:45:00,
2013-11-22 00:55:00,46.5,45.1,30.40,West,271,0.0,0.0,95,0.00,,,0.00,Wunderground v.1.15,2013-11-22 05:55:00,
2013-11-22 01:00:00,46.5,45.4,30.40,West,271,0.0,0.0,96,0.00,,,0.00,Wunderground v.1.15,2013-11-22 06:00:00,
2013-11-22 01:05:00,46.5,45.4,30.40,West,271,0.0,0.0,96,0.00,,,0.00,Wunderground v.1.15,2013-11-22 06:05:00,
2013-11-22 01:15:00,46.7,45.6,30.40,West,271,0.0,0.0,96,0.00,,,0.00,Wunderground v.1.15,2013-11-22 06:15:00,
2013-11-22 01:20:00,46.8,45.7,30.40,West,271,0.0,0.0,96,0.00,,,0.00,Wunderground v.1.15,2013-11-22 06:20:00,
2013-11-22 01:25:00,46.8,45.7,30.39,West,271,0.0,0.0,96,0.00,,,0.00,Wunderground v.1.15,2013-11-22 06:25:00,
2013-11-22 01:35:00,47.0,45.9,30.39,West,271,0.0,0.0,96,0.00,,,0.00,Wunderground v.1.15,2013-11-22 06:35:00,
2013-11-22 01:40:00,47.1,46.0,30.40,West,271,0.0,0.0,96,0.00,,,0.00,Wunderground v.1.15,2013-11-22 06:40:00,
2013-11-22 01:45:00,47.1,46.0,30.40,West,271,0.0,0.0,96,0.00,,,0.00,Wunderground v.1.15,2013-11-22 06:45:00,
2013-11-22 01:50:00,47.1,46.0,30.40,West,271,0.0,0.0,96,0.00,,,0.00,Wunderground v.1.15,2013-11-22 06:50:00,
2013-11-22 01:55:00,47.1,46.0,30.40,West,271,0.0,0.0,96,0.00,,,0.00,Wunderground v.1.15,2013-11-22 06:55:00,
2013-11-22 02:05:00,47.1,46.0,30.39,West,271,0.0,0.0,96,0.00,,,0.00,Wunderground v.1.15,2013-11-22 07:05:00,
2013-11-22 02:15:00,47.1,46.0,30.39,West,271,0.0,0.0,96,0.00,,,0.00,Wunderground v.1.15,2013-11-22 07:15:00,
2013-11-22 02:20:00,47.2,46.1,30.39,West,271,0.0,0.0,96,0.00,,,0.00,Wunderground v.1.15,2013-11-22 07:20:00,
2013-11-22 02:25:00,47.1,46.0,30.39,West,271,0.0,0.0,96,0.00,,,0.00,Wunderground v.1.15,2013-11-22 07:25:00,
2013-11-22 02:30:00,47.2,46.1,30.39,West,271,0.0,0.0,96,0.00,,,0.00,Wunderground v.1.15,2013-11-22 07:30:00,
2013-11-22 02:35:00,47.2,46.1,30.39,West,271,0.0,0.0,96,0.00,,,0.00,Wunderground v.1.15,2013-11-22 07:35:00,
2013-11-22 02:40:00,47.2,46.1,30.39,West,271,0.0,0.0,96,0.00,,,0.00,Wunderground v.1.15,2013-11-22 07:40:00,
2013-11-22 02:50:00,47.3,46.2,30.38,West,271,0.0,0.0,96,0.00,,,0.00,Wunderground v.1.15,2013-11-22 07:50:00,
2013-11-22 02:55:00,47.2,46.1,30.38,West,271,0.0,0.0,96,0.00,,,0.00,Wunderground v.1.15,2013-11-22 07:55:00,
2013-11-22 03:00:00,47.2,46.1,30.38,West,271,0.0,0.0,96,0.00,,,0.00,Wunderground v.1.15,2013-11-22 08:00:00,
2013-11-22 03:05:00,47.2,46.1,30.38,West,271,0.0,0.0,96,0.00,,,0.00,Wunderground v.1.15,2013-11-22 08:05:00,
2013-11-22 03:15:00,47.2,46.1,30.38,West,271,0.0,0.0,96,0.00,,,0.00,Wunderground v.1.15,2013-11-22 08:15:00,
2013-11-22 03:20:00,47.1,46.0,30.37,West,271,0.0,0.0,96,0.00,,,0.00,Wunderground v.1.15,2013-11-22 08:20:00,
2013-11-22 03:30:00,47.2,46.4,30.37,West,271,0.0,0.0,97,0.00,,,0.00,Wunderground v.1.15,2013-11-22 08:30:00,
2013-11-22 03:35:00,47.3,46.5,30.37,West,271,0.0,0.0,97,0.00,,,0.00,Wunderground v.1.15,2013-11-22 08:35:00,
2013-11-22 03:40:00,47.3,46.5,30.37,West,271,0.0,0.0,97,0.00,,,0.00,Wunderground v.1.15,2013-11-22 08:40:00,
2013-11-22 03:45:00,47.3,46.5,30.36,West,271,0.0,0.0,97,0.00,,,0.00,Wunderground v.1.15,2013-11-22 08:45:00,
2013-11-22 03:50:00,47.3,46.5,30.36,West,271,0.0,0.0,97,0.00,,,0.00,Wunderground v.1.15,2013-11-22 08:50:00,
2013-11-22 04:00:00,47.4,46.6,30.36,West,271,0.0,0.0,97,0.00,,,0.00,Wunderground v.1.15,2013-11-22 09:00:00,
2013-11-22 04:05:00,47.4,46.6,30.36,West,271,0.0,0.0,97,0.00,,,0.00,Wunderground v.1.15,2013-11-22 09:05:00,
2013-11-22 04:15:00,47.6,46.8,30.37,West,271,0.0,0.0,97,0.00,,,0.00,Wunderground v.1.15,2013-11-22 09:15:00,
2013-11-22 04:20:00,47.6,46.8,30.36,West,271,0.0,0.0,97,0.00,,,0.00,Wunderground v.1.15,2013-11-22 09:20:00,
2013-11-22 04:25:00,47.7,46.9,30.36,West,271,0.0,0.0,97,0.00,,,0.00,Wunderground v.1.15,2013-11-22 09:25:00,
2013-11-22 04:30:00,47.9,47.1,30.36,West,271,0.0,0.0,97,0.00,,,0.00,Wunderground v.1.15,2013-11-22 09:30:00,
2013-11-22 04:35:00,48.1,47.3,30.35,West,271,0.0,0.0,97,0.00,,,0.00,Wunderground v.1.15,2013-11-22 09:35:00,
2013-11-22 04:45:00,48.3,47.5,30.36,West,271,0.0,0.0,97,0.00,,,0.00,Wunderground v.1.15,2013-11-22 09:45:00,
2013-11-22 04:50:00,48.4,47.6,30.36,West,271,0.0,0.0,97,0.00,,,0.00,Wunderground v.1.15,2013-11-22 09:50:00,
2013-11-22 04:55:00,48.4,47.6,30.36,West,271,0.0,0.0,97,0.00,,,0.00,Wunderground v.1.15,2013-11-22 09:55:00,
2013-11-22 05:00:00,48.5,47.7,30.36,West,271,0.0,0.0,97,0.00,,,0.00,Wunderground v.1.15,2013-11-22 10:00:00,
2013-11-22 05:05:00,48.5,47.7,30.35,West,271,0.0,0.0,97,0.00,,,0.00,Wunderground v.1.15,2013-11-22 10:05:00,
2013-11-22 05:15:00,48.5,47.4,30.35,West,271,0.0,0.0,96,0.00,,,0.00,Wunderground v.1.15,2013-11-22 10:15:00,
2013-11-22 05:25:00,48.3,47.2,30.34,West,271,0.0,0.0,96,0.00,,,0.00,Wunderground v.1.15,2013-11-22 10:25:00,
2013-11-22 05:30:00,48.1,47.0,30.34,West,271,0.0,0.0,96,0.00,,,0.00,Wunderground v.1.15,2013-11-22 10:30:00,
2013-11-22 05:35:00,48.0,46.9,30.34,West,271,0.0,0.0,96,0.00,,,0.00,Wunderground v.1.15,2013-11-22 10:35:00,
2013-11-22 05:40:00,47.8,46.7,30.35,West,271,0.0,0.0,96,0.00,,,0.00,Wunderground v.1.15,2013-11-22 10:40:00,
2013-11-22 05:45:00,47.6,46.5,30.35,West,271,0.0,0.0,96,0.00,,,0.00,Wunderground v.1.15,2013-11-22 10:45:00,
2013-11-22 05:55:00,47.5,46.4,30.35,West,271,0.0,0.0,96,0.00,,,0.00,Wunderground v.1.15,2013-11-22 10:55:00,
2013-11-22 06:00:00,47.4,46.3,30.35,West,271,0.0,0.0,96,0.00,,,0.00,Wunderground v.1.15,2013-11-22 11:00:00,
2013-11-22 06:05:00,47.3,46.2,30.35,West,271,0.0,0.0,96,0.00,,,0.00,Wunderground v.1.15,2013-11-22 11:05:00,
2013-11-22 06:15:00,47.0,45.9,30.35,West,271,0.0,0.0,96,0.00,,,0.00,Wunderground v.1.15,2013-11-22 11:15:00,
2013-11-22 06:20:00,46.8,45.7,30.35,West,271,0.0,0.0,96,0.00,,,0.00,Wunderground v.1.15,2013-11-22 11:20:00,
2013-11-22 06:25:00,46.7,45.6,30.34,West,271,0.0,0.0,96,0.00,,,0.00,Wunderground v.1.15,2013-11-22 11:25:00,
2013-11-22 06:30:00,46.5,45.4,30.34,West,271,0.0,0.0,96,0.00,,,0.00,Wunderground v.1.15,2013-11-22 11:30:00,
2013-11-22 06:40:00,46.3,45.2,30.34,West,271,0.0,0.0,96,0.00,,,0.00,Wunderground v.1.15,2013-11-22 11:40:00,
2013-11-22 06:45:00,46.2,45.1,30.34,West,271,0.0,0.0,96,0.00,,,0.00,Wunderground v.1.15,2013-11-22 11:45:00,
2013-11-22 06:50:00,46.1,45.0,30.33,West,271,0.0,0.0,96,0.00,,,0.00,Wunderground v.1.15,2013-11-22 11:50:00,
2013-11-22 06:55:00,45.9,44.8,30.33,West,271,0.0,0.0,96,0.00,,,0.00,Wunderground v.1.15,2013-11-22 11:55:00,
2013-11-22 07:05:00,45.7,44.6,30.33,West,271,0.0,0.0,96,0.00,,,0.00,Wunderground v.1.15,2013-11-22 12:05:00,
2013-11-22 07:15:00,45.5,44.4,30.33,West,271,0.0,0.0,96,0.00,,,0.00,Wunderground v.1.15,2013-11-22 12:15:00,
2013-11-22 07:20:00,45.5,44.7,30.33,West,271,0.0,0.0,97,0.00,,,0.00,Wunderground v.1.15,2013-11-22 12:20:00,
2013-11-22 07:25:00,45.6,44.8,30.33,West,271,0.0,0.0,97,0.00,,,0.00,Wunderground v.1.15,2013-11-22 12:25:00,
2013-11-22 07:30:00,45.6,44.8,30.33,West,271,0.0,0.0,97,0.00,,,0.00,Wunderground v.1.15,2013-11-22 12:30:00,
2013-11-22 07:35:00,45.7,44.9,30.33,West,271,0.0,0.0,97,0.00,,,0.00,Wunderground v.1.15,2013-11-22 12:35:00,
2013-11-22 07:40:00,46.0,45.2,30.33,West,271,0.0,0.0,97,0.00,,,0.00,Wunderground v.1.15,2013-11-22 12:40:00,
2013-11-22 07:50:00,46.5,46.0,30.33,West,271,0.0,0.0,98,0.00,,,0.00,Wunderground v.1.15,2013-11-22 12:50:00,
2013-11-22 07:55:00,46.8,46.3,30.32,West,271,0.0,0.0,98,0.00,,,0.00,Wunderground v.1.15,2013-11-22 12:55:00,
2013-11-22 08:00:00,47.3,46.8,30.32,West,271,0.0,0.0,98,0.00,,,0.00,Wunderground v.1.15,2013-11-22 13:00:00,
2013-11-22 08:05:00,47.7,47.2,30.32,West,271,0.0,0.0,98,0.00,,,0.00,Wunderground v.1.15,2013-11-22 13:05:00,
2013-11-22 08:15:00,48.4,47.9,30.33,West,271,0.0,0.0,98,0.00,,,0.00,Wunderground v.1.15,2013-11-22 13:15:00,
2013-11-22 08:20:00,48.8,48.3,30.33,West,271,0.0,0.0,98,0.00,,,0.00,Wunderground v.1.15,2013-11-22 13:20:00,
2013-11-22 08:25:00,49.2,48.7,30.33,West,271,0.0,0.0,98,0.00,,,0.00,Wunderground v.1.15,2013-11-22 13:25:00,
2013-11-22 08:35:00,49.7,49.2,30.33,West,271,0.0,0.0,98,0.00,,,0.00,Wunderground v.1.15,2013-11-22 13:35:00,
2013-11-22 08:40:00,50.0,49.5,30.33,West,271,0.0,0.0,98,0.00,,,0.00,Wunderground v.1.15,2013-11-22 13:40:00,
2013-11-22 08:45:00,50.2,49.7,30.33,West,271,0.0,1.0,98,0.00,,,0.00,Wunderground v.1.15,2013-11-22 13:45:00,
2013-11-22 08:50:00,50.5,50.0,30.33,West,271,0.0,0.0,98,0.00,,,0.00,Wunderground v.1.15,2013-11-22 13:50:00,
2013-11-22 09:00:00,51.1,50.6,30.33,West,281,0.0,0.0,98,0.00,,,0.00,Wunderground v.1.15,2013-11-22 14:00:00,
2013-11-22 09:05:00,51.6,51.3,30.32,WNW,282,0.0,0.0,99,0.00,,,0.00,Wunderground v.1.15,2013-11-22 14:05:00,
2013-11-22 09:15:00,52.1,51.6,30.33,WNW,282,0.0,0.0,98,0.00,,,0.00,Wunderground v.1.15,2013-11-22 14:15:00,
2013-11-22 09:20:00,52.4,52.1,30.32,WNW,298,0.0,1.0,99,0.00,,,0.00,Wunderground v.1.15,2013-11-22 14:20:00,
2013-11-22 09:25:00,52.8,52.3,30.32,WNW,297,0.0,2.0,98,0.00,,,0.00,Wunderground v.1.15,2013-11-22 14:25:00,
2013-11-22 09:35:00,54.0,53.4,30.32,NW,314,1.0,3.0,98,0.00,,,0.00,Wunderground v.1.15,2013-11-22 14:35:00,
2013-11-22 09:40:00,54.6,54.0,30.32,West,263,1.0,1.0,98,0.00,,,0.00,Wunderground v.1.15,2013-11-22 14:40:00,
2013-11-22 09:45:00,55.2,54.6,30.32,WSW,258,1.0,1.0,98,0.00,,,0.00,Wunderground v.1.15,2013-11-22 14:45:00,
2013-11-22 09:50:00,55.8,55.0,30.32,SE,131,1.0,1.0,97,0.00,,,0.00,Wunderground v.1.15,2013-11-22 14:50:00,
2013-11-22 10:00:00,56.9,55.5,30.32,WNW,287,1.0,1.0,95,0.00,,,0.00,Wunderground v.1.15,2013-11-22 15:00:00,
2013-11-22 10:05:00,57.4,55.7,30.32,SW,216,0.0,1.0,94,0.00,,,0.00,Wunderground v.1.15,2013-11-22 15:05:00,
2013-11-22 10:15:00,58.2,55.9,30.32,WNW,296,0.0,1.0,92,0.00,,,0.00,Wunderground v.1.15,2013-11-22 15:15:00,
2013-11-22 10:20:00,58.7,56.1,30.32,WNW,296,0.0,0.0,91,0.00,,,0.00,Wunderground v.1.15,2013-11-22 15:20:00,
2013-11-22 10:25:00,59.0,56.4,30.32,WNW,296,0.0,0.0,91,0.00,,,0.00,Wunderground v.1.15,2013-11-22 15:25:00,
2013-11-22 10:30:00,59.1,56.2,30.31,WNW,296,1.0,1.0,90,0.00,,,0.00,Wunderground v.1.15,2013-11-22 15:30:00,
2013-11-22 10:35:00,59.5,56.3,30.31,WNW,296,0.0,1.0,89,0.00,,,0.00,Wunderground v.1.15,2013-11-22 15:35:00,
2013-11-22 10:45:00,60.3,56.7,30.31,WNW,296,0.0,0.0,88,0.00,,,0.00,Wunderground v.1.15,2013-11-22 15:45:00,
2013-11-22 10:50:00,60.8,56.9,30.30,WNW,296,0.0,0.0,87,0.00,,,0.00,Wunderground v.1.15,2013-11-22 15:50:00,
2013-11-22 10:55:00,61.2,57.3,30.30,WNW,296,0.0,0.0,87,0.00,,,0.00,Wunderground v.1.15,2013-11-22 15:55:00,
2013-11-22 11:00:00,61.4,57.2,30.30,WSW,244,0.0,1.0,86,0.00,,,0.00,Wunderground v.1.15,2013-11-22 16:00:00,
2013-11-22 11:06:00,61.8,57.2,30.30,South,174,1.0,1.0,85,0.00,,,0.00,Wunderground v.1.15,2013-11-22 16:06:00,
2013-11-22 11:15:00,62.4,57.8,30.29,NW,314,0.0,2.0,85,0.00,,,0.00,Wunderground v.1.15,2013-11-22 16:15:00,
2013-11-22 11:25:00,62.9,58.0,30.29,WNW,297,0.0,1.0,84,0.00,,,0.00,Wunderground v.1.15,2013-11-22 16:25:00,
2013-11-22 11:30:00,63.1,57.9,30.29,SSW,198,0.0,0.0,83,0.00,,,0.00,Wunderground v.1.15,2013-11-22 16:30:00,
2013-11-22 11:35:00,63.2,57.9,30.29,SSW,198,0.0,1.0,83,0.00,,,0.00,Wunderground v.1.15,2013-11-22 16:35:00,
2013-11-22 11:40:00,63.3,58.0,30.28,SSW,198,0.0,0.0,83,0.00,,,0.00,Wunderground v.1.15,2013-11-22 16:40:00,
2013-11-22 11:45:00,63.4,58.1,30.28,SSW,198,0.0,0.0,83,0.00,,,0.00,Wunderground v.1.15,2013-11-22 16:45:00,
2013-11-22 11:55:00,63.8,58.5,30.27,SW,234,0.0,2.0,83,0.00,,,0.00,Wunderground v.1.15,2013-11-22 16:55:00,
2013-11-22 12:00:00,64.1,58.8,30.26,WNW,298,0.0,0.0,83,0.00,,,0.00,Wunderground v.1.15,2013-11-22 17:00:00,
2013-11-22 12:05:00,64.3,59.0,30.26,South,171,1.0,1.0,83,0.00,,,0.00,Wunderground v.1.15,2013-11-22 17:05:00,
2013-11-22 12:15:00,64.4,59.1,30.26,SW,220,1.0,1.0,83,0.00,,,0.00,Wunderground v.1.15,2013-11-22 17:15:00,
2013-11-22 12:20:00,64.5,58.9,30.25,SSW,197,1.0,1.0,82,0.00,,,0.00,Wunderground v.1.15,2013-11-22 17:20:00,
2013-11-22 12:25:00,64.6,59.0,30.25,WSW,238,1.0,1.0,82,0.00,,,0.00,Wunderground v.1.15,2013-11-22 17:25:00,
2013-11-22 12:30:00,64.7,59.1,30.25,SSW,198,1.0,1.0,82,0.00,,,0.00,Wunderground v.1.15,2013-11-22 17:30:00,
2013-11-22 12:40:00,65.0,59.4,30.24,SW,215,0.0,1.0,82,0.00,,,0.00,Wunderground v.1.15,2013-11-22 17:40:00,
2013-11-22 12:45:00,65.3,59.3,30.24,SE,126,0.0,2.0,81,0.00,,,0.00,Wunderground v.1.15,2013-11-22 17:45:00,
2013-11-22 12:50:00,65.4,59.4,30.24,SSW,207,1.0,1.0,81,0.00,,,0.00,Wunderground v.1.15,2013-11-22 17:50:00,
2013-11-22 12:55:00,65.3,59.3,30.24,SE,143,1.0,1.0,81,0.00,,,0.00,Wunderground v.1.15,2013-11-22 17:55:00,
2013-11-22 13:00:00,65.3,59.3,30.23,SSE,159,0.0,2.0,81,0.00,,,0.00,Wunderground v.1.15,2013-11-22 18:00:00,
2013-11-22 13:05:00,65.3,59.3,30.23,SSE,159,1.0,2.0,81,0.00,,,0.00,Wunderground v.1.15,2013-11-22 18:05:00,
2013-11-22 13:15:00,65.5,59.5,30.23,SE,130,1.0,2.0,81,0.00,,,0.00,Wunderground v.1.15,2013-11-22 18:15:00,
2013-11-22 13:25:00,65.9,59.6,30.22,SSE,154,2.0,2.0,80,0.00,,,0.00,Wunderground v.1.15,2013-11-22 18:25:00,
2013-11-22 13:30:00,66.2,60.2,30.22,West,261,1.0,1.0,81,0.00,,,0.00,Wunderground v.1.15,2013-11-22 18:30:00,
2013-11-22 13:35:00,66.7,60.3,30.22,NNW,329,1.0,2.0,80,0.00,,,0.00,Wunderground v.1.15,2013-11-22 18:35:00,
2013-11-22 13:40:00,67.1,60.4,30.21,SSW,203,1.0,1.0,79,0.00,,,0.00,Wunderground v.1.15,2013-11-22 18:40:00,
2013-11-22 13:45:00,67.6,60.9,30.21,SE,144,1.0,3.0,79,0.00,,,0.00,Wunderground v.1.15,2013-11-22 18:45:00,
2013-11-22 13:55:00,68.6,61.1,30.20,WSW,249,2.0,4.0,77,0.00,,,0.00,Wunderground v.1.15,2013-11-22 18:55:00,
2013-11-22 14:00:00,68.9,61.0,30.20,South,173,2.0,2.0,76,0.00,,,0.00,Wunderground v.1.15,2013-11-22 19:00:00,
2013-11-22 14:05:00,69.0,61.1,30.20,South,171,2.0,2.0,76,0.00,,,0.00,Wunderground v.1.15,2013-11-22 19:05:00,
2013-11-22 14:15:00,69.4,61.5,30.19,NW,309,2.0,2.0,76,0.00,,,0.00,Wunderground v.1.15,2013-11-22 19:15:00,
2013-11-22 14:20:00,69.4,61.1,30.19,SSE,156,2.0,3.0,75,0.00,,,0.00,Wunderground v.1.15,2013-11-22 19:20:00,
2013-11-22 14:25:00,69.2,61.3,30.19,ESE,121,2.0,3.0,76,0.00,,,0.00,Wunderground v.1.15,2013-11-22 19:25:00,
2013-11-22 14:35:00,69.4,61.5,30.19,NNW,335,1.0,2.0,76,0.00,,,0.00,Wunderground v.1.15,2013-11-22 19:35:00,
2013-11-22 14:40:00,69.8,61.5,30.19,WNW,298,1.0,3.0,75,0.00,,,0.00,Wunderground v.1.15,2013-11-22 19:40:00,
2013-11-22 14:45:00,69.9,61.6,30.18,SSE,150,2.0,3.0,75,0.00,,,0.00,Wunderground v.1.15,2013-11-22 19:45:00,
2013-11-22 14:50:00,69.8,61.1,30.18,SE,146,2.0,5.0,74,0.00,,,0.00,Wunderground v.1.15,2013-11-22 19:50:00,
2013-11-22 14:55:00,69.8,61.5,30.17,SSW,205,2.0,5.0,75,0.00,,,0.00,Wunderground v.1.15,2013-11-22 19:55:00,
2013-11-22 15:05:00,70.4,61.3,30.17,ESE,111,2.0,2.0,73,0.00,,,0.00,Wunderground v.1.15,2013-11-22 20:05:00,
2013-11-22 15:15:00,70.2,61.1,30.17,South,173,3.0,3.0,73,0.00,,,0.00,Wunderground v.1.15,2013-11-22 20:15:00,
2013-11-22 15:25:00,70.0,61.3,30.17,NW,304,2.0,2.0,74,0.00,,,0.00,Wunderground v.1.15,2013-11-22 20:25:00,
2013-11-22 15:30:00,69.8,61.5,30.17,NW,304,1.0,1.0,75,0.00,,,0.00,Wunderground v.1.15,2013-11-22 20:30:00,
2013-11-22 15:35:00,69.7,61.4,30.17,SSE,155,1.0,1.0,75,0.00,,,0.00,Wunderground v.1.15,2013-11-22 20:35:00,
2013-11-22 15:40:00,69.6,61.3,30.17,NNW,340,1.0,1.0,75,0.00,,,0.00,Wunderground v.1.15,2013-11-22 20:40:00,
2013-11-22 15:50:00,70.0,61.7,30.17,West,268,1.0,1.0,75,0.00,,,0.00,Wunderground v.1.15,2013-11-22 20:50:00,
2013-11-22 15:55:00,70.1,61.8,30.16,SSE,165,1.0,1.0,75,0.00,,,0.00,Wunderground v.1.15,2013-11-22 20:55:00,
2013-11-22 16:00:00,70.0,61.7,30.16,South,169,1.0,1.0,75,0.00,,,0.00,Wunderground v.1.15,2013-11-22 21:00:00,
2013-11-22 16:05:00,69.8,61.5,30.16,SE,140,1.0,1.0,75,0.00,,,0.00,Wunderground v.1.15,2013-11-22 21:05:00,
2013-11-22 16:15:00,69.2,61.3,30.16,SE,126,1.0,1.0,76,0.00,,,0.00,Wunderground v.1.15,2013-11-22 21:15:00,
2013-11-22 16:20:00,68.9,61.4,30.16,SSW,198,1.0,2.0,77,0.00,,,0.00,Wunderground v.1.15,2013-11-22 21:20:00,
2013-11-22 16:30:00,68.6,61.5,30.16,SE,138,0.0,0.0,78,0.00,,,0.00,Wunderground v.1.15,2013-11-22 21:30:00,
2013-11-22 16:35:00,68.5,61.4,30.16,SSE,153,0.0,0.0,78,0.00,,,0.00,Wunderground v.1.15,2013-11-22 21:35:00,
2013-11-22 16:40:00,68.3,61.2,30.16,South,188,0.0,0.0,78,0.00,,,0.00,Wunderground v.1.15,2013-11-22 21:40:00,
2013-11-22 16:45:00,68.2,61.4,30.15,South,185,0.0,0.0,79,0.00,,,0.00,Wunderground v.1.15,2013-11-22 21:45:00,
2013-11-22 16:50:00,68.0,61.2,30.15,SSE,153,0.0,0.0,79,0.00,,,0.00,Wunderground v.1.15,2013-11-22 21:50:00,
2013-11-22 17:00:00,67.5,61.1,30.14,WSW,238,0.0,0.0,80,0.00,,,0.00,Wunderground v.1.15,2013-11-22 22:00:00,
2013-11-22 17:05:00,67.2,61.2,30.14,WSW,238,0.0,0.0,81,0.00,,,0.00,Wunderground v.1.15,2013-11-22 22:05:00,
2013-11-22 17:15:00,66.9,60.9,30.14,WSW,238,0.0,0.0,81,0.00,,,0.00,Wunderground v.1.15,2013-11-22 22:15:00,
2013-11-22 17:20:00,66.7,61.0,30.14,WSW,238,0.0,0.0,82,0.00,,,0.00,Wunderground v.1.15,2013-11-22 22:20:00,
2013-11-22 17:25:00,66.6,61.3,30.14,WSW,238,0.0,0.0,83,0.00,,,0.00,Wunderground v.1.15,2013-11-22 22:25:00,
2013-11-22 17:30:00,66.5,61.2,30.14,WSW,238,0.0,0.0,83,0.00,,,0.00,Wunderground v.1.15,2013-11-22 22:30:00,
2013-11-22 17:35:00,66.4,61.1,30.14,WSW,238,0.0,0.0,83,0.00,,,0.00,Wunderground v.1.15,2013-11-22 22:35:00,
2013-11-22 17:40:00,66.2,60.9,30.14,WSW,238,0.0,0.0,83,0.00,,,0.00,Wunderground v.1.15,2013-11-22 22:40:00,
2013-11-22 17:50:00,66.0,61.0,30.14,WSW,238,0.0,0.0,84,0.00,,,0.00,Wunderground v.1.15,2013-11-22 22:50:00,
2013-11-22 17:55:00,65.8,60.8,30.14,WSW,238,0.0,0.0,84,0.00,,,0.00,Wunderground v.1.15,2013-11-22 22:55:00,
2013-11-22 18:00:00,65.6,60.6,30.14,WSW,238,0.0,0.0,84,0.00,,,0.00,Wunderground v.1.15,2013-11-22 23:00:00,
2013-11-22 18:06:00,65.5,60.9,30.14,WSW,238,0.0,0.0,85,0.00,,,0.00,Wunderground v.1.15,2013-11-22 23:06:00,
2013-11-22 18:15:00,65.4,60.8,30.14,WSW,238,0.0,0.0,85,0.00,,,0.00,Wunderground v.1.15,2013-11-22 23:15:00,
2013-11-22 18:20:00,65.2,60.6,30.14,WSW,238,0.0,0.0,85,0.00,,,0.00,Wunderground v.1.15,2013-11-22 23:20:00,
2013-11-22 18:30:00,65.2,60.9,30.13,WSW,238,0.0,0.0,86,0.00,,,0.00,Wunderground v.1.15,2013-11-22 23:30:00,
2013-11-22 18:35:00,65.2,60.9,30.13,WSW,238,0.0,0.0,86,0.00,,,0.00,Wunderground v.1.15,2013-11-22 23:35:00,
2013-11-22 18:40:00,65.2,60.9,30.13,SW,236,0.0,0.0,86,0.00,,,0.00,Wunderground v.1.15,2013-11-22 23:40:00,
2013-11-22 18:45:00,65.4,61.1,30.13,SW,236,0.0,0.0,86,0.00,,,0.00,Wunderground v.1.15,2013-11-22 23:45:00,
2013-11-22 18:55:00,65.6,61.3,30.13,SSE,161,0.0,0.0,86,0.00,,,0.00,Wunderground v.1.15,2013-11-22 23:55:00,
2013-11-22 19:00:00,65.6,61.3,30.12,SSE,161,0.0,0.0,86,0.00,,,0.00,Wunderground v.1.15,2013-11-23 00:00:00,
2013-11-22 19:05:00,65.6,61.0,30.13,SSW,209,0.0,0.0,85,0.00,,,0.00,Wunderground v.1.15,2013-11-23 00:05:00,
2013-11-22 19:15:00,65.7,61.1,30.12,West,259,1.0,1.0,85,0.00,,,0.00,Wunderground v.1.15,2013-11-23 00:15:00,
2013-11-22 19:20:00,65.7,60.7,30.12,WSW,252,1.0,1.0,84,0.00,,,0.00,Wunderground v.1.15,2013-11-23 00:20:00,
2013-11-22 19:25:00,65.7,60.7,30.12,WSW,252,0.0,1.0,84,0.00,,,0.00,Wunderground v.1.15,2013-11-23 00:25:00,
2013-11-22 19:30:00,65.7,60.7,30.12,SW,221,0.0,0.0,84,0.00,,,0.00,Wunderground v.1.15,2013-11-23 00:30:00,
2013-11-22 19:35:00,65.7,60.7,30.12,SW,221,0.0,0.0,84,0.00,,,0.00,Wunderground v.1.15,2013-11-23 00:35:00,
2013-11-22 19:45:00,65.6,60.6,30.12,SW,216,1.0,1.0,84,0.00,,,0.00,Wunderground v.1.15,2013-11-23 00:45:00,
2013-11-22 19:50:00,65.6,60.6,30.12,SW,216,0.0,0.0,84,0.00,,,0.00,Wunderground v.1.15,2013-11-23 00:50:00,
2013-11-22 19:55:00,65.6,60.6,30.12,SE,132,0.0,0.0,84,0.00,,,0.00,Wunderground v.1.15,2013-11-23 00:55:00,
2013-11-22 20:00:00,65.5,60.5,30.12,SE,132,0.0,2.0,84,0.00,,,0.00,Wunderground v.1.15,2013-11-23 01:00:00,
2013-11-22 20:06:00,65.5,60.5,30.12,SW,224,0.0,2.0,84,0.00,,,0.00,Wunderground v.1.15,2013-11-23 01:06:00,
2013-11-22 20:15:00,65.4,60.4,30.12,SW,230,0.0,0.0,84,0.00,,,0.00,Wunderground v.1.15,2013-11-23 01:15:00,
2013-11-22 20:25:00,65.4,60.4,30.11,WSW,240,0.0,0.0,84,0.00,,,0.00,Wunderground v.1.15,2013-11-23 01:25:00,
2013-11-22 20:30:00,65.4,60.4,30.11,SSW,211,0.0,0.0,84,0.00,,,0.00,Wunderground v.1.15,2013-11-23 01:30:00,
2013-11-22 20:35:00,65.3,60.3,30.11,SSW,211,0.0,0.0,84,0.00,,,0.00,Wunderground v.1.15,2013-11-23 01:35:00,
2013-11-22 20:40:00,65.2,60.2,30.11,SSW,211,0.0,0.0,84,0.00,,,0.00,Wunderground v.1.15,2013-11-23 01:40:00,
2013-11-22 20:45:00,65.2,60.2,30.11,SSW,211,0.0,0.0,84,0.00,,,0.00,Wunderground v.1.15,2013-11-23 01:45:00,
2013-11-22 20:55:00,65.1,60.5,30.11,SSW,211,0.0,0.0,85,0.00,,,0.00,Wunderground v.1.15,2013-11-23 01:55:00,
2013-11-22 21:00:00,65.0,60.4,30.11,SSW,211,0.0,0.0,85,0.00,,,0.00,Wunderground v.1.15,2013-11-23 02:00:00,
2013-11-22 21:05:00,65.0,60.7,30.11,WSW,244,0.0,0.0,86,0.00,,,0.00,Wunderground v.1.15,2013-11-23 02:05:00,
2013-11-22 21:15:00,64.7,60.4,30.11,WSW,244,0.0,0.0,86,0.00,,,0.00,Wunderground v.1.15,2013-11-23 02:15:00,
2013-11-22 21:20:00,64.6,60.6,30.10,WSW,244,0.0,0.0,87,0.00,,,0.00,Wunderground v.1.15,2013-11-23 02:20:00,
2013-11-22 21:25:00,64.5,60.5,30.10,WSW,244,0.0,0.0,87,0.00,,,0.00,Wunderground v.1.15,2013-11-23 02:25:00,
2013-11-22 21:30:00,64.4,60.4,30.10,WSW,244,0.0,1.0,87,0.00,,,0.00,Wunderground v.1.15,2013-11-23 02:30:00,
2013-11-22 21:40:00,64.4,60.8,30.10,East,98,0.0,0.0,88,0.00,,,0.00,Wunderground v.1.15,2013-11-23 02:40:00,
2013-11-22 21:45:00,64.5,60.9,30.10,ESE,102,0.0,0.0,88,0.00,,,0.00,Wunderground v.1.15,2013-11-23 02:45:00,
2013-11-22 21:50:00,64.5,60.9,30.10,ESE,113,0.0,0.0,88,0.00,,,0.00,Wunderground v.1.15,2013-11-23 02:50:00,
2013-11-22 21:55:00,64.5,60.9,30.10,SSW,213,0.0,0.0,88,0.00,,,0.00,Wunderground v.1.15,2013-11-23 02:55:00,
2013-11-22 22:05:00,64.4,60.8,30.10,SE,129,0.0,0.0,88,0.00,,,0.00,Wunderground v.1.15,2013-11-23 03:05:00,
2013-11-22 22:15:00,64.2,60.9,30.10,SSE,165,0.0,0.0,89,0.00,,,0.00,Wunderground v.1.15,2013-11-23 03:15:00,
2013-11-22 22:20:00,64.1,61.1,30.10,SSE,165,0.0,0.0,90,0.00,,,0.00,Wunderground v.1.15,2013-11-23 03:20:00,
2013-11-22 22:25:00,63.9,60.9,30.10,SSE,165,0.0,0.0,90,0.00,,,0.00,Wunderground v.1.15,2013-11-23 03:25:00,
2013-11-22 22:30:00,63.7,61.0,30.10,SSW,199,0.0,0.0,91,0.00,,,0.00,Wunderground v.1.15,2013-11-23 03:30:00,
2013-11-22 22:35:00,63.6,60.9,30.10,West,281,0.0,0.0,91,0.00,,,0.00,Wunderground v.1.15,2013-11-23 03:35:00,
2013-11-22 22:45:00,63.3,60.9,30.10,West,281,0.0,0.0,92,0.00,,,0.01,Wunderground v.1.15,2013-11-23 03:45:00,
2013-11-22 22:50:00,63.1,61.0,30.10,West,281,0.0,0.0,93,0.00,,,0.01,Wunderground v.1.15,2013-11-23 03:50:00,
2013-11-22 22:55:00,63.0,60.9,30.10,West,281,0.0,0.0,93,0.00,,,0.01,Wunderground v.1.15,2013-11-23 03:55:00,
2013-11-22 23:05:00,62.7,60.9,30.11,West,281,0.0,0.0,94,0.00,,,0.01,Wunderground v.1.15,2013-11-23 04:05:00,
2013-11-22 23:15:00,62.5,60.7,30.10,NW,304,0.0,0.0,94,0.00,,,0.02,Wunderground v.1.15,2013-11-23 04:15:00,
2013-11-22 23:25:00,62.3,60.8,30.10,WNW,297,0.0,0.0,95,0.00,,,0.02,Wunderground v.1.15,2013-11-23 04:25:00,
2013-11-22 23:30:00,62.3,60.8,30.10,WNW,297,0.0,0.0,95,0.00,,,0.02,Wunderground v.1.15,2013-11-23 04:30:00,
2013-11-22 23:35:00,62.1,60.7,30.09,WNW,300,0.0,0.0,95,0.00,,,0.02,Wunderground v.1.15,2013-11-23 04:35:00,
2013-11-22 23:40:00,62.1,60.9,30.09,WNW,300,0.0,0.0,96,0.00,,,0.02,Wunderground v.1.15,2013-11-23 04:40:00,
2013-11-22 23:45:00,62.0,60.8,30.10,South,180,0.0,0.0,96,0.00,,,0.02,Wunderground v.1.15,2013-11-23 04:45:00,
2013-11-22 23:55:00,61.9,60.7,30.09,South,178,0.0,0.0,96,0.00,,,0.02,Wunderground v.1.15,2013-11-23 04:55:00,